www.pogodaiklimat.ru

Погода и климат >> Архив погоды >> Бенин >> Bohicon


ПОГОДА в Bohicon

  • Прогноз погоды в Bohicon
  • Монитор погоды в Bohicon
  • Климат города

АРХИВ ПОГОДЫ в Bohicon

Время (UTC), дата Ветер
(напр.,м/с)
 
Видим.   Явления Облачность Т
(С)
Тd
(С)
f
(%)
Тe
(С)
Тes
(С)
Комфортность P
(гПа)
Po
(гПа)
Тmin
(С)
Tmax
(С)
R
(мм)
R24
(мм)
S
(см)
12 11.12 штиль 0 6000 м 6/0
[Ci sp]
+32.3 +11.8 29 +33 +52 опасность
солнечного
удара
1010.2 991.6
15 11.12 штиль 0 2500 м пыль 6/0
[Ci sp]
+34.2 +14.2 30 +35 +44 очень
жарко
1008.5 989.6
18 11.12 штиль 0 2000 м пыль 6/0
[Ci sp]
+29.8 +19.4 54 +36 +36 очень
душно
1009.3 990.6 +34.5
21 11.12 штиль 0 2000 м пыль 6/0
[Ci sp]
+27.5 +18.8 59 +33 +33 очень
душно
1011.3 992.7
00 12.12 штиль 0 6000 м 6/0
[Ci sp]
+26.5 +20.0 68 +33 +33 очень
душно
1011.6 993.1
03 12.12 штиль 0 6000 м 6/0
[Ci sp]
+25.2 +20.5 75 +31 +31 очень
душно
1011.1 992.6
06 12.12 штиль 0 6000 м мгла 6/0
[Ci sp]
+25.0 +19.7 72 +30 +30 душно 1010.2 991.6 +23.8
09 12.12 штиль 0 4000 м пыль 9/0
[Ac As Ci sp]
+27.6 +19.9 63 +34 +38 очень
душно
1012.2 993.6
12 12.12 штиль 0 4000 м пыль 9/0
[Ac As]
+32.0 +19.3 47 +38 +46 очень
душно
1011.0 992.5
15 12.12 штиль 0 3500 м пыль 9/0
[Ac As Ci sp]
+33.5 +20.0 45 +40 +44 очень
душно
1009.6 991.1
18 12.12 штиль 0 3000 м пыль 6/0
[Ci sp]
+30.6 +21.5 58 +39 +39 очень
душно
1010.2 991.6 +33.9
21 12.12 штиль 0 4000 м пыль 9/0
[Ac As]
+27.5 +21.1 68 +35 +35 очень
душно
1011.5 992.9
00 13.12 штиль 0 4000 м пыль 9/0
[Ac As]
+26.4 +21.4 74 +34 +34 очень
душно
1011.2 992.7
03 13.12 штиль 0 6000 м 9/0
[Ac trans]
+25.4 +21.1 77 +32 +32 очень
душно
1009.8 991.4
06 13.12 штиль 0 6000 м 9/0
[Ac trans]
+24.5 +20.7 79 +30 +30 очень
душно
1011.1 992.5 +24.5
09 13.12 штиль 0 3500 м пыль 9/0
[Ac trans Ci sp]
+28.0 +16.8 51 +32 +38 душно 1012.2 993.6
12 13.12 СВ 1 3500 м пыль 9/0
[Ac trans Ci sp]
+33.6 +17.8 39 +37 +50 очень
душно
1010.6 992.1
15 13.12 СВ 2 3000 м пыль 9/0
[Ac trans Ci sp]
+35.0 +18.4 38 +39 +44 очень
душно
1007.7 989.3
18 13.12 штиль 0 3000 м пыль 6/0
[Ci sp]
+30.0 +21.4 60 +38 +38 очень
душно
1008.9 990.3 +35.3
21 13.12 штиль 0 3000 м пыль 6/0
[Ci sp]
+27.0 +21.9 74 +35 +35 очень
душно
1011.2 992.8
00 14.12 штиль 0 6000 м 6/0
[Ci sp]
+25.5 +23.8 90 +35 +35 очень
душно
1010.6 992.1
03 14.12 штиль 0 6000 м 8/3 330 м
[Sc Ci sp]
+25.0 +23.8 93 +34 +34 очень
душно
1009.8 991.4
06 14.12 З 1 2000 м дымка 9/0
[Ac As Ci sp]
+25.0 +23.8 93 +34 +34 очень
душно
1010.6 992.0 +25.0
09 14.12 штиль 0 6000 м 9/9 330 м
[Sc]
+27.0 +23.7 82 +37 +38 очень
душно
1012.7 994.0
12 14.12 ЮЗ 2 6000 м мгла 6/0
[Ci sp]
+33.0 +22.2 53 +42 +56 опасность
перегрева
1010.6 992.1
15 14.12 штиль 0 6000 м мгла 6/0
[Ci sp]
+35.5 +22.2 46 +44 +53 опасность
перегрева
1008.2 989.8
18 14.12 штиль 0 6000 м мгла 6/0
[Ci sp]
+30.8 +23.7 66 +42 +42 опасность
перегрева
1008.1 989.6 +35.7
21 14.12 штиль 0 8000 м 6/0
[Ci sp]
+27.0 +24.2 85 +38 +38 очень
душно
1012.3 993.6
00 15.12 штиль 0 8000 м 9/6 330 м
[Sc Ci sp]
+26.0 +24.6 92 +37 +37 очень
душно
1011.5 993.0
03 15.12 штиль 0 8000 м 6/0
[Ci sp]
+25.5 +24.0 91 +35 +35 очень
душно
1011.0 992.6
06 15.12 штиль 0 8000 м 6/0
[Ci sp]
+24.5 +23.8 96 +33 +33 очень
душно
1011.4 992.8 +24.5
09 15.12 штиль 0 8000 м 6/0
[Ci sp]
+28.2 +23.3 75 +38 +48 очень
душно
1012.6 994.0
12 15.12 штиль 0 8000 м 6/0
[Ci sp]
+34.0 +21.4 48 +42 +61 опасность
перегрева
1011.4 992.9
15 15.12 Ю 1 8000 м мгла 6/1 450 м
[Cu hum Ci sp]
+37.0 +21.3 40 +44 +51 опасность
перегрева
1006.9 988.6
18 15.12 Ю 2 8000 м мгла 8/0
[Ci sp]
+31.9 +22.7 58 +42 +42 опасность
перегрева
1008.1 989.6 +37.0
21 15.12 штиль 0 8000 м 6/0
[Ci sp]
+27.7 +24.2 81 +39 +39 очень
душно
1010.4 991.8
00 16.12 штиль 0 8000 м 6/0
[Ci sp]
+26.5 +25.0 91 +38 +38 очень
душно
1010.1 991.7
03 16.12 штиль 0 8000 м 9/6 330 м
[Sc Ci sp]
+26.0 +24.6 92 +37 +37 очень
душно
1009.7 991.4
06 16.12 штиль 0 8000 м 9/6 330 м
[Sc Ci sp]
+25.5 +24.1 92 +35 +35 очень
душно
1010.6 992.1 +25.5
09 16.12 штиль 0 8000 м 9/5 330 м
[Cu Sc Ci sp]
+28.5 +24.2 78 +40 +45 очень
душно
1011.5 992.9
12 16.12 штиль 0 8000 м 9/5 800 м
[Cu med, cong Ci sp]
+34.0 +24.2 57 +46 +56 опасность
перегрева
1009.5 991.1
15 16.12 штиль 0 8000 м 8/1 450 м
[Cu med, cong Ci sp]
+36.1 +21.4 43 +44 +51 опасность
перегрева
1007.1 988.8
18 16.12 Ю 1 8000 м 6/0
[Ci sp]
+32.0 +24.3 64 +44 +44 опасность
перегрева
1008.2 989.7 +36.4
21 16.12 ЮЗ 1 8000 м 6/0
[Ci sp]
+28.2 +25.1 83 +41 +41 опасность
перегрева
1010.6 992.0
00 17.12 штиль 0 8000 м 8/5 330 м
[Sc Ci sp]
+26.7 +25.2 91 +38 +38 очень
душно
1009.8 991.4
03 17.12 З 1 8000 м 9/8 330 м
[Sc Ci sp]
+26.7 +25.2 91 +38 +38 очень
душно
1008.8 990.4
06 17.12 штиль 0 8000 м 9/5 330 м
[Sc Ac trans]
+26.5 +24.8 90 +38 +38 очень
душно
1009.4 990.9 +26.5
09 17.12 штиль 0 8000 м 9/5 800 м
[Cu med, cong Ci sp]
+29.5 +24.6 75 +42 +47 опасность
перегрева
1011.5 993.0
12 17.12 штиль 0 8000 м 9/5 800 м
[Cu med, cong Ci sp]
+34.7 +22.2 48 +43 +53 опасность
перегрева
1009.5 991.1
15 17.12 штиль 0 8000 м 9/5 800 м
[Cu med, cong Ci sp]
+36.0 +22.3 45 +45 +49 опасность
перегрева
1007.2 988.9
18 17.12 штиль 0 8000 м 6/0
[Ci sp]
+32.0 +22.7 58 +42 +42 опасность
перегрева
1007.9 989.4 +36.4
21 17.12 штиль 0 8000 м 6/0
[Ci sp]
+28.3 +24.2 78 +39 +39 очень
душно
1011.8 993.3
00 18.12 штиль 0 8000 м 6/0
[Ci sp]
+26.7 +25.0 90 +38 +38 очень
душно
1011.8 993.4
03 18.12 штиль 0 8000 м 6/0
[Ci sp]
+26.0 +24.6 92 +37 +37 очень
душно
1010.0 991.6
06 18.12 штиль 0 8000 м 9/3 330 м
[Sc Ac As Ci sp]
+25.5 +24.8 96 +36 +36 очень
душно
1010.1 991.6 +25.5
09 18.12 штиль 0 8000 м 9/6 330 м
[Sc Ci sp]
+28.2 +23.1 74 +38 +42 очень
душно
1011.7 993.1

 

Местоположение метеостанции Bohicon (Бенин): широта 7.17 долгота 2.07 высота над уровнем моря 167 м.

В архиве по умолчанию представлена погода в Bohicon за последнюю неделю. Архивные данные за месяц целиком и за предыдущие месяцы, начиная с января 2011 года, Вы можете получить, выбрав интересующий диапазон дат из раскрывающегося списка и нажав кнопку "Ввод!".

Внимание! Время в таблицах - всемирное. Для получения местного времени необходимо прибавить поправку, которая в Bohicon равна 1 ч.

Смотрите также архив погоды в соседних городах и на ближайших метеорологических станциях:

Погода в Tabligbo (Того) (91 км)
Погода в Cotonou (Бенин) (97 км)
Погода в Save (Бенин) (105 км)
Погода в Atakpame (Того) (114 км)
Погода в Lome (Того) (143 км)
Погода в Lagos (Нигерия) (154 км)
Погода в Akatsi (Гана) (183 км)
Погода в Ho (Гана) (188 км)
Погода в Ibadan (Нигерия) (204 км)
Погода в Ijebu Ode (Нигерия) (209 км)

Пояснения к столбцам:

Ветер - указаны скорость ветра в м/с - средняя за 10 мин, порывы в срок и между сроками (в фигурных скобках) и направление, откуда дует ветер: С - северный, СВ - северо-восточный, В - восточный, ЮВ - юго-восточный, Ю - южный, ЮЗ - юго-западный, З - западный, СЗ - северо-западный.
Видимость - горизонтальная дальность видимости в метрах или километрах. При видимости от 1 до 10 км при отсутствии осадков обычно наблюдается дымка, при ухудшении видимости до 1 км и менее - туман. В сухую погоду видимость может ухудшаться дымом, пылью или мглою.
Явления - указаны атмосферные явления, наблюдавшиеся в срок или в последний час перед сроком; фигурными скобками обозначены явления, наблюдавшиеся между сроками (за 1-3 часа до срока); квадратными скобками обозначены град или гололедные отложения с указанием их диаметра в мм.
Облачность - указаны через наклонную черту общая и нижняя облачность в баллах и высота нижней границы облаков в метрах; квадратными скобками обозначены формы облаков: Ci - перистые, Cs - перисто-слоистые, Cc - перисто-кучевые, Ac - высококучевые, As - высокослоистые, Sc - слоисто-кучевые, Ns - слоисто-дождевые, Cu - кучевые, Cb - кучево-дождевые. Подробнее классификацию облаков см. в Атласе облаков (PDF).
T - Температура воздуха - температура, измеренная на высоте 2 м над землей.
Td - Температура точки росы - температура, при понижении до которой содержащийся в воздухе водяной пар достигнет насыщения.
f - Относительная влажность воздуха - влажноcть воздуха, измеренная на высоте 2 м над землей.
Te - Эффективная температура - температура, которую ощущает одетый по сезону человек в тени. Характеристика душности погоды. При расчете учитывается влияние влажности воздуха и скорости ветра на теплоощущения человека.
Tes - Эффективная температура на солнце - температура, которую ощущает человек, с поправкой на солнечный нагрев. Характеристика знойности погоды. Зависит от высоты солнца над горизонтом, облачности и скорости ветра. Ночью, в пасмурную погоду, а также при ветре 12 м/с и более поправка равна нулю.
P - Атмосферное давление - приведенное к уровню моря атмосферное давление.
Po - Атмосферное давление - измеренное на уровне метеостанции атмосферное давление.
Tmin - Минимальная температура - минимум температуры воздуха на высоте 2 м над землей.
Tmax - Максимальная температура - максимум температуры воздуха на высоте 2 м над землей.
R - Количество осадков - Количество выпавших осадков за период времени, мм. При наведении курсора мыши на число - период времени, за который выпало указанное количество осадков.
R24 - Количество осадков - Количество выпавших осадков за 24 часа, мм.
S - Снежный покров - Высота снежного покрова, см. При наведении курсора мыши на число - состояние снежного покрова и степень покрытия местности в баллах.